SAUDISAT 1C (SO-50)

Last updated on Tue Aug 25 2026 00:03:13 GMT+0000 (Coordinated Universal Time)

1 27607U 02058C 26236.52869240 .00000793 00000+0 11089-3 0 9992 2 27607 64.5512 277.5176 0073097 249.9417 109.3811 14.83174583274598
UTC large
Height (km)
Speed (km/s)
/
Latitude / Longitude
Inclination (degrees)
Orbital Period (minutes)
Azimuth
Elevation
Range (km)
Doppler Factor

Next 0 passes for location: London (51.5072 / 0.1276)

No passes found over London.
SAUDISAT 1C (SO-50)